"Period start","avg(HW err(1)/warn(2) (#))","avg(Visibility (m))","avg(Weather code (#))","avg(Precip intensity (mm/h))","min(HW err(1)/warn(2) (#))","max(HW err(1)/warn(2) (#))","std(HW err(1)/warn(2) (#))","med(HW err(1)/warn(2) (#))","min(Visibility (m))","max(Visibility (m))","std(Visibility (m))","med(Visibility (m))","min(Weather code (#))","max(Weather code (#))","std(Weather code (#))","med(Weather code (#))","min(Precip intensity (mm/h))","max(Precip intensity (mm/h))","std(Precip intensity (mm/h))","med(Precip intensity (mm/h))"
2014-10-05 00:00:00,2,34455,0,0.00,2,2,0,2,26955,40570,4029,35018,0,0,0,0,0.00,0.00,0.00,0.00
2014-10-05 00:10:00,2,27582,60,0.01,2,2,0,2,14156,40853,7738,27108,0,77,24,71,0.00,0.05,0.02,0.00
2014-10-05 00:20:00,2,11488,71,0.40,2,2,0,2,7972,16177,2513,11102,71,71,0,71,0.05,0.85,0.30,0.35
2014-10-05 00:30:00,2,7605,71,0.77,2,2,0,2,4484,9141,1311,8054,71,71,0,71,0.35,1.75,0.38,0.68
2014-10-05 00:40:00,2,5535,71,0.78,2,2,0,2,4531,7215,833,5438,71,71,0,71,0.35,1.45,0.28,0.75
2014-10-05 00:50:00,2,13112,71,0.40,2,2,0,2,4011,21372,5965,13238,71,71,0,71,0.00,1.65,0.51,0.12
2014-10-05 01:00:00,2,27338,64,0.03,2,2,0,2,17579,39773,8104,26531,0,71,21,71,0.00,0.15,0.05,0.00
2014-10-05 01:10:00,2,36752,0,0.00,2,2,0,2,30045,42941,4474,35454,0,0,0,0,0.00,0.00,0.00,0.00
2014-10-05 01:20:00,2,40050,0,0.00,2,2,0,2,32366,49639,5575,39936,0,0,0,0,0.00,0.00,0.00,0.00
2014-10-05 01:30:00,2,40119,0,0.00,2,2,0,2,25713,50000,6151,40783,0,0,0,0,0.00,0.00,0.00,0.00
2014-10-05 01:40:00,2,25331,0,0.00,2,2,0,2,19733,32834,3641,24696,0,0,0,0,0.00,0.00,0.00,0.00
2014-10-05 01:50:00,2,38351,0,0.00,2,2,0,2,23114,50000,9111,42110,0,0,0,0,0.00,0.00,0.00,0.00
2014-10-05 02:00:00,2,32022,0,0.00,2,2,0,2,25956,46392,5992,30632,0,0,0,0,0.00,0.00,0.00,0.00
2014-10-05 02:10:00,2,32045,0,0.00,2,2,0,2,18416,44470,7102,33288,0,0,0,0,0.00,0.00,0.00,0.00
2014-10-05 02:20:00,2,31887,0,0.00,2,2,0,2,16971,45336,8430,33278,0,0,0,0,0.00,0.00,0.00,0.00
2014-10-05 02:30:00,2,31899,0,0.00,2,2,0,2,20293,47740,7754,30866,0,0,0,0,0.00,0.00,0.00,0.00
2014-10-05 02:40:00,2,34781,0,0.00,2,2,0,2,26892,48256,6664,36116,0,0,0,0,0.00,0.00,0.00,0.00
2014-10-05 02:50:00,2,32240,0,0.00,2,2,0,2,22010,44739,8850,27168,0,0,0,0,0.00,0.00,0.00,0.00
2014-10-05 03:00:00,2,36785,0,0.00,2,2,0,2,26855,50000,8409,35544,0,0,0,0,0.00,0.00,0.00,0.00
2014-10-05 03:10:00,2,31998,0,0.00,2,2,0,2,23409,43907,5978,31652,0,0,0,0,0.00,0.00,0.00,0.00
2014-10-05 03:20:00,2,31131,0,0.00,2,2,0,2,16951,46286,8957,30226,0,0,0,0,0.00,0.00,0.00,0.00
2014-10-05 03:30:00,2,29206,0,0.00,2,2,0,2,20723,39325,5676,31295,0,0,0,0,0.00,0.00,0.00,0.00
2014-10-05 03:40:00,2,36190,0,0.00,2,2,0,2,27710,47003,7403,32826,0,0,0,0,0.00,0.00,0.00,0.00
2014-10-05 03:50:00,2,42528,0,0.00,2,2,0,2,37012,50000,4545,43376,0,0,0,0,0.00,0.00,0.00,0.00
2014-10-05 04:00:00,2,33156,0,0.00,2,2,0,2,23204,47813,6290,32328,0,0,0,0,0.00,0.00,0.00,0.00
2014-10-05 04:10:00,2,37023,0,0.00,2,2,0,2,32647,44336,3618,35946,0,0,0,0,0.00,0.00,0.00,0.00
2014-10-05 04:20:00,2,34257,0,0.00,2,2,0,2,29957,42694,4155,33402,0,0,0,0,0.00,0.00,0.00,0.00
2014-10-05 04:30:00,2,42108,0,0.00,2,2,0,2,29177,49793,6258,44021,0,0,0,0,0.00,0.00,0.00,0.00
2014-10-05 04:40:00,2,46865,0,0.00,2,2,0,2,42748,50000,2366,47683,0,0,0,0,0.00,0.00,0.00,0.00
2014-10-05 04:50:00,2,39980,0,0.00,2,2,0,2,33488,47357,4339,39038,0,0,0,0,0.00,0.00,0.00,0.00
2014-10-05 05:00:00,2,43298,0,0.00,2,2,0,2,37875,50000,4116,42175,0,0,0,0,0.00,0.00,0.00,0.00
2014-10-05 05:10:00,2,45913,0,0.00,2,2,0,2,41340,50000,3170,46720,0,0,0,0,0.00,0.00,0.00,0.00
2014-10-05 05:20:00,2,46393,0,0.00,2,2,0,2,37697,50000,3940,47965,0,0,0,0,0.00,0.00,0.00,0.00
2014-10-05 05:30:00,2,47907,0,0.00,2,2,0,2,43923,50000,2207,48411,0,0,0,0,0.00,0.00,0.00,0.00
2014-10-05 05:40:00,2,47932,0,0.00,2,2,0,2,42706,50000,2530,48930,0,0,0,0,0.00,0.00,0.00,0.00
2014-10-05 05:50:00,2,46428,0,0.00,2,2,0,2,39120,50000,3368,47303,0,0,0,0,0.00,0.00,0.00,0.00
2014-10-05 06:00:00,2,44708,0,0.00,2,2,0,2,42988,49594,1764,44352,0,0,0,0,0.00,0.00,0.00,0.00
2014-10-05 06:10:00,2,49258,0,0.00,2,2,0,2,44885,50000,1556,50000,0,0,0,0,0.00,0.00,0.00,0.00
2014-10-05 06:20:00,2,49410,0,0.00,2,2,0,2,46871,50000,1010,50000,0,0,0,0,0.00,0.00,0.00,0.00
2014-10-05 06:30:00,2,49555,0,0.00,2,2,0,2,46021,50000,1186,50000,0,0,0,0,0.00,0.00,0.00,0.00
2014-10-05 06:40:00,2,46742,0,0.00,2,2,0,2,39076,50000,3965,48412,0,0,0,0,0.00,0.00,0.00,0.00
2014-10-05 06:50:00,2,49522,0,0.00,2,2,0,2,46644,50000,1004,50000,0,0,0,0,0.00,0.00,0.00,0.00
2014-10-05 07:00:00,2,47113,0,0.00,2,2,0,2,41348,50000,2917,47715,0,0,0,0,0.00,0.00,0.00,0.00
2014-10-05 07:10:00,2,47299,0,0.00,2,2,0,2,44470,50000,2046,47030,0,0,0,0,0.00,0.00,0.00,0.00
2014-10-05 07:20:00,2,49142,0,0.00,2,2,0,2,44432,50000,1752,50000,0,0,0,0,0.00,0.00,0.00,0.00
2014-10-05 07:30:00,2,49491,0,0.00,2,2,0,2,47729,50000,796,50000,0,0,0,0,0.00,0.00,0.00,0.00
2014-10-05 07:40:00,2,48791,0,0.00,2,2,0,2,45048,50000,1667,49914,0,0,0,0,0.00,0.00,0.00,0.00
2014-10-05 07:50:00,2,49841,0,0.00,2,2,0,2,48764,50000,368,50000,0,0,0,0,0.00,0.00,0.00,0.00
2014-10-05 08:00:00,2,50000,0,0.00,2,2,0,2,50000,50000,0,50000,0,0,0,0,0.00,0.00,0.00,0.00
2014-10-05 08:10:00,2,49757,0,0.00,2,2,0,2,47567,50000,730,50000,0,0,0,0,0.00,0.00,0.00,0.00
2014-10-05 08:20:00,2,48199,0,0.00,2,2,0,2,44658,50000,2345,49928,0,0,0,0,0.00,0.00,0.00,0.00
2014-10-05 08:30:00,2,47610,0,0.00,2,2,0,2,44434,50000,2036,47878,0,0,0,0,0.00,0.00,0.00,0.00
2014-10-05 08:40:00,2,48120,0,0.00,2,2,0,2,44611,50000,2181,49202,0,0,0,0,0.00,0.00,0.00,0.00
2014-10-05 08:50:00,2,43294,0,0.00,2,2,0,2,40545,48161,2296,42888,0,0,0,0,0.00,0.00,0.00,0.00
2014-10-05 09:00:00,2,38236,0,0.00,2,2,0,2,31913,43965,3885,38803,0,0,0,0,0.00,0.00,0.00,0.00
2014-10-05 09:10:00,2,40287,0,0.00,2,2,0,2,36909,43589,1856,39779,0,0,0,0,0.00,0.00,0.00,0.00
2014-10-05 09:20:00,2,37149,0,0.00,2,2,0,2,32213,45820,4716,34858,0,0,0,0,0.00,0.00,0.00,0.00
2014-10-05 09:30:00,2,35535,0,0.00,2,2,0,2,31227,42189,3112,35922,0,0,0,0,0.00,0.00,0.00,0.00
2014-10-05 09:40:00,2,32677,0,0.00,2,2,0,2,28939,36918,2359,33059,0,0,0,0,0.00,0.00,0.00,0.00
2014-10-05 09:50:00,2,35595,0,0.00,2,2,0,2,29209,41081,4082,37331,0,0,0,0,0.00,0.00,0.00,0.00
2014-10-05 10:00:00,2,30364,0,0.00,2,2,0,2,26733,36017,2632,30594,0,0,0,0,0.00,0.00,0.00,0.00
2014-10-05 10:10:00,2,27964,0,0.00,2,2,0,2,24508,30558,2110,28058,0,0,0,0,0.00,0.00,0.00,0.00
2014-10-05 10:20:00,2,29950,0,0.00,2,2,0,2,26964,36135,2664,29034,0,0,0,0,0.00,0.00,0.00,0.00
2014-10-05 10:30:00,2,32181,0,0.00,2,2,0,2,28834,34668,1749,32190,0,0,0,0,0.00,0.00,0.00,0.00
2014-10-05 10:40:00,2,33836,0,0.00,2,2,0,2,27955,39644,4245,33884,0,0,0,0,0.00,0.00,0.00,0.00
2014-10-05 10:50:00,2,29904,0,0.00,2,2,0,2,24771,36272,3403,30226,0,0,0,0,0.00,0.00,0.00,0.00
2014-10-05 11:00:00,2,27217,0,0.00,2,2,0,2,25865,30150,1330,26644,0,0,0,0,0.00,0.00,0.00,0.00
2014-10-05 11:10:00,2,20430,64,0.05,2,2,0,2,13433,26558,3850,19984,0,71,21,71,0.00,0.45,0.13,0.00
2014-10-05 11:20:00,2,30685,0,0.00,2,2,0,2,26473,36643,3124,30611,0,0,0,0,0.00,0.00,0.00,0.00
2014-10-05 11:30:00,2,39694,0,0.00,2,2,0,2,36670,47327,2974,39084,0,0,0,0,0.00,0.00,0.00,0.00
2014-10-05 11:40:00,2,45495,0,0.00,2,2,0,2,38804,50000,4291,47294,0,0,0,0,0.00,0.00,0.00,0.00
2014-10-05 11:50:00,2,49286,0,0.00,2,2,0,2,46950,50000,1155,50000,0,0,0,0,0.00,0.00,0.00,0.00
2014-10-05 12:00:00,2,36340,7,0.00,2,2,0,2,30510,47909,5280,34126,0,71,21,0,0.00,0.00,0.00,0.00
2014-10-05 12:10:00,2,33393,77,0.00,2,2,0,2,29841,37018,2397,33289,71,78,2,78,0.00,0.00,0.00,0.00
2014-10-05 12:20:00,2,39841,62,0.00,2,2,0,2,31772,50000,6964,37998,0,78,31,78,0.00,0.00,0.00,0.00
2014-10-05 12:30:00,2,48470,0,0.00,2,2,0,2,42859,50000,2285,50000,0,0,0,0,0.00,0.00,0.00,0.00
2014-10-05 12:40:00,2,47706,0,0.00,2,2,0,2,43482,50000,2570,49010,0,0,0,0,0.00,0.00,0.00,0.00
2014-10-05 12:50:00,2,35278,28,0.03,2,2,0,2,7627,50000,14929,42064,0,71,35,0,0.00,0.15,0.06,0.00
2014-10-05 13:00:00,2,6028,72,0.16,2,2,0,2,4492,8312,1016,6154,71,77,2,71,0.05,0.45,0.12,0.12
2014-10-05 13:10:00,2,6085,78,0.07,2,2,0,2,5065,6962,619,6026,77,78,0,78,0.05,0.10,0.02,0.05
2014-10-05 13:20:00,2,8737,78,0.03,2,2,0,2,6676,11142,1472,8834,78,78,0,78,0.00,0.10,0.04,0.00
2014-10-05 13:30:00,2,11627,78,0.00,2,2,0,2,10480,13689,981,11284,78,78,0,78,0.00,0.00,0.00,0.00
2014-10-05 13:40:00,2,15313,39,0.00,2,2,0,2,14398,16769,764,15021,0,78,39,39,0.00,0.00,0.00,0.00
2014-10-05 13:50:00,2,15115,0,0.00,2,2,0,2,13236,18515,1578,14941,0,0,0,0,0.00,0.00,0.00,0.00
2014-10-05 14:00:00,2,28677,0,0.00,2,2,0,2,15600,44262,8332,28470,0,0,0,0,0.00,0.00,0.00,0.00
2014-10-05 14:10:00,2,37255,0,0.00,2,2,0,2,27965,50000,8026,36375,0,0,0,0,0.00,0.00,0.00,0.00
2014-10-05 14:20:00,2,39919,0,0.00,2,2,0,2,25736,50000,8365,40054,0,0,0,0,0.00,0.00,0.00,0.00
2014-10-05 14:30:00,2,50000,0,0.00,2,2,0,2,50000,50000,0,50000,0,0,0,0,0.00,0.00,0.00,0.00
2014-10-05 14:40:00,2,50000,0,0.00,2,2,0,2,50000,50000,0,50000,0,0,0,0,0.00,0.00,0.00,0.00
2014-10-05 14:50:00,2,50000,0,0.00,2,2,0,2,50000,50000,0,50000,0,0,0,0,0.00,0.00,0.00,0.00
2014-10-05 15:00:00,2,50000,0,0.00,2,2,0,2,50000,50000,0,50000,0,0,0,0,0.00,0.00,0.00,0.00
2014-10-05 15:10:00,2,50000,0,0.00,2,2,0,2,50000,50000,0,50000,0,0,0,0,0.00,0.00,0.00,0.00
2014-10-05 15:20:00,2,50000,0,0.00,2,2,0,2,50000,50000,0,50000,0,0,0,0,0.00,0.00,0.00,0.00
2014-10-05 15:30:00,2,49738,0,0.00,2,2,0,2,47376,50000,787,50000,0,0,0,0,0.00,0.00,0.00,0.00
2014-10-05 15:40:00,2,50000,0,0.00,2,2,0,2,50000,50000,0,50000,0,0,0,0,0.00,0.00,0.00,0.00
2014-10-05 15:50:00,2,48344,0,0.00,2,2,0,2,43757,50000,2038,49506,0,0,0,0,0.00,0.00,0.00,0.00
2014-10-05 16:00:00,2,47588,0,0.00,2,2,0,2,42311,50000,3206,50000,0,0,0,0,0.00,0.00,0.00,0.00
2014-10-05 16:10:00,2,49990,0,0.00,2,2,0,2,49902,50000,29,50000,0,0,0,0,0.00,0.00,0.00,0.00
2014-10-05 16:20:00,2,49885,0,0.00,2,2,0,2,49277,50000,239,50000,0,0,0,0,0.00,0.00,0.00,0.00
2014-10-05 16:30:00,2,49923,0,0.00,2,2,0,2,49345,50000,196,50000,0,0,0,0,0.00,0.00,0.00,0.00
2014-10-05 16:40:00,2,49994,0,0.00,2,2,0,2,49937,50000,19,50000,0,0,0,0,0.00,0.00,0.00,0.00
2014-10-05 16:50:00,2,49970,0,0.00,2,2,0,2,49697,50000,91,50000,0,0,0,0,0.00,0.00,0.00,0.00
2014-10-05 17:00:00,2,49771,0,0.00,2,2,0,2,47746,50000,675,50000,0,0,0,0,0.00,0.00,0.00,0.00
2014-10-05 17:10:00,2,49512,0,0.00,2,2,0,2,46211,50000,1147,50000,0,0,0,0,0.00,0.00,0.00,0.00
2014-10-05 17:20:00,2,48114,0,0.00,2,2,0,2,43672,50000,2133,48777,0,0,0,0,0.00,0.00,0.00,0.00
2014-10-05 17:30:00,2,42778,0,0.00,2,2,0,2,36072,48299,4050,43350,0,0,0,0,0.00,0.00,0.00,0.00
2014-10-05 17:40:00,2,39558,0,0.00,2,2,0,2,36904,45673,2601,38809,0,0,0,0,0.00,0.00,0.00,0.00
2014-10-05 17:50:00,2,41790,0,0.00,2,2,0,2,38229,44189,1751,42089,0,0,0,0,0.00,0.00,0.00,0.00
2014-10-05 18:00:00,2,45124,0,0.00,2,2,0,2,40925,50000,2725,44888,0,0,0,0,0.00,0.00,0.00,0.00
2014-10-05 18:10:00,2,47328,0,0.00,2,2,0,2,42425,50000,2916,48219,0,0,0,0,0.00,0.00,0.00,0.00
2014-10-05 18:20:00,2,43512,0,0.00,2,2,0,2,37205,50000,3955,43170,0,0,0,0,0.00,0.00,0.00,0.00
2014-10-05 18:30:00,2,47431,0,0.00,2,2,0,2,43935,50000,2344,48135,0,0,0,0,0.00,0.00,0.00,0.00
2014-10-05 18:40:00,2,43053,0,0.00,2,2,0,2,37634,49023,2977,43132,0,0,0,0,0.00,0.00,0.00,0.00
2014-10-05 18:50:00,2,40128,0,0.00,2,2,0,2,35351,48793,3730,39518,0,0,0,0,0.00,0.00,0.00,0.00
2014-10-05 19:00:00,2,42161,0,0.00,2,2,0,2,34813,49544,5039,41548,0,0,0,0,0.00,0.00,0.00,0.00
2014-10-05 19:10:00,2,45081,0,0.00,2,2,0,2,40907,48697,2567,44768,0,0,0,0,0.00,0.00,0.00,0.00
2014-10-05 19:20:00,2,40183,0,0.00,2,2,0,2,33501,44358,3183,41198,0,0,0,0,0.00,0.00,0.00,0.00
2014-10-05 19:30:00,2,37233,0,0.00,2,2,0,2,31127,43691,4322,36538,0,0,0,0,0.00,0.00,0.00,0.00
2014-10-05 19:40:00,2,40034,0,0.00,2,2,0,2,37215,43009,1744,40233,0,0,0,0,0.00,0.00,0.00,0.00
2014-10-05 19:50:00,2,39588,0,0.00,2,2,0,2,33825,44717,3060,39820,0,0,0,0,0.00,0.00,0.00,0.00
2014-10-05 20:00:00,2,38738,0,0.00,2,2,0,2,33541,45242,3693,38533,0,0,0,0,0.00,0.00,0.00,0.00
2014-10-05 20:10:00,2,40382,0,0.00,2,2,0,2,36346,46482,3255,39180,0,0,0,0,0.00,0.00,0.00,0.00
2014-10-05 20:20:00,2,34889,0,0.00,2,2,0,2,31251,41258,3048,33738,0,0,0,0,0.00,0.00,0.00,0.00
2014-10-05 20:30:00,2,39870,0,0.00,2,2,0,2,34629,47551,3850,39782,0,0,0,0,0.00,0.00,0.00,0.00
2014-10-05 20:40:00,2,37222,0,0.00,2,2,0,2,32605,43589,3574,36924,0,0,0,0,0.00,0.00,0.00,0.00
2014-10-05 20:50:00,2,44057,0,0.00,2,2,0,2,40246,48798,2900,43904,0,0,0,0,0.00,0.00,0.00,0.00
2014-10-05 21:00:00,2,36829,0,0.00,2,2,0,2,32088,40885,2383,36668,0,0,0,0,0.00,0.00,0.00,0.00
2014-10-05 21:10:00,2,40460,0,0.00,2,2,0,2,38246,42360,1170,40412,0,0,0,0,0.00,0.00,0.00,0.00
2014-10-05 21:20:00,2,38588,0,0.00,2,2,0,2,33139,42771,2727,38861,0,0,0,0,0.00,0.00,0.00,0.00
2014-10-05 21:30:00,2,41121,0,0.00,2,2,0,2,36724,44103,2468,41293,0,0,0,0,0.00,0.00,0.00,0.00
2014-10-05 21:40:00,2,45659,0,0.00,2,2,0,2,40990,50000,2948,46426,0,0,0,0,0.00,0.00,0.00,0.00
2014-10-05 21:50:00,2,37593,0,0.00,2,2,0,2,33384,42281,2920,36950,0,0,0,0,0.00,0.00,0.00,0.00
2014-10-05 22:00:00,2,40241,0,0.00,2,2,0,2,33198,47430,3655,40563,0,0,0,0,0.00,0.00,0.00,0.00
2014-10-05 22:10:00,2,39693,0,0.00,2,2,0,2,35905,45456,2650,39472,0,0,0,0,0.00,0.00,0.00,0.00
2014-10-05 22:20:00,2,42220,0,0.00,2,2,0,2,36744,46912,2851,42408,0,0,0,0,0.00,0.00,0.00,0.00
2014-10-05 22:30:00,2,40353,0,0.00,2,2,0,2,36252,45753,2708,39454,0,0,0,0,0.00,0.00,0.00,0.00
2014-10-05 22:40:00,2,40034,0,0.00,2,2,0,2,33438,49552,4917,39156,0,0,0,0,0.00,0.00,0.00,0.00
2014-10-05 22:50:00,2,41540,0,0.00,2,2,0,2,34814,45856,4310,43890,0,0,0,0,0.00,0.00,0.00,0.00
2014-10-05 23:00:00,2,43626,0,0.00,2,2,0,2,39616,47146,2525,43962,0,0,0,0,0.00,0.00,0.00,0.00
2014-10-05 23:10:00,2,40902,0,0.00,2,2,0,2,35097,43774,2223,41218,0,0,0,0,0.00,0.00,0.00,0.00
2014-10-05 23:20:00,2,42521,0,0.00,2,2,0,2,35924,48030,3374,41846,0,0,0,0,0.00,0.00,0.00,0.00
2014-10-05 23:30:00,2,44024,0,0.00,2,2,0,2,32864,50000,5495,46333,0,0,0,0,0.00,0.00,0.00,0.00
2014-10-05 23:40:00,2,38597,0,0.00,2,2,0,2,33839,46203,3675,38156,0,0,0,0,0.00,0.00,0.00,0.00
2014-10-05 23:50:00,2,38931,0,0.00,2,2,0,2,31338,50000,6313,39820,0,0,0,0,0.00,0.00,0.00,0.00
